Regional Weather Roundup
Issued by NWS

Home | Current Version | Previous Version | Graphics & Text | Print | Product List | Glossary On
Versions: 1 2 3 4 5 6 7 8 9 10 11 12 13 14 15 16 17 18 19 20 21 22 23 24 25 26 27 28 29 30 31 32 33 34 35 36 37 38 39 40 41 42 43 44 45 46 47 48 49 50
000
ASUS43 KIND 221309
RWRIN

WEATHER ROUNDUP FOR INDIANA
NATIONAL WEATHER SERVICE INDIANAPOLIS IN
900 AM EDT FRI SEP 22 2017

NOTE: "FAIR" INDICATES FEW OR NO CLOUDS BELOW 12,000 FEET WITH NO
SIGNIFICANT WEATHER AND/OR OBSTRUCTIONS TO VISIBILITY.

* - STATION DOES NOT REPORT WEATHER SUCH AS PRECIPITATION OR FOG.

+ - STATION NOT QUALITY CONTROLLED BY THE NATIONAL WEATHER SERVICE.
    USE DATA WITH CAUTION...ESPECIALLY DEWPOINT AND RELATIVE
    HUMIDITY OBSERVATIONS.

INZ001>003-010>013-019-020-221400-
NORTHWEST INDIANA

CITY           SKY/WX    TMP DP  RH WIND       PRES   REMARKS
GARY /AIRPORT/ MOSUNNY   73  68  83 S3        30.10R
KNOX *+        SUNNY     68  66  94 CALM      30.10S
LA PORTE +     SUNNY     69  69 100 CALM      30.12R FOG
MICHIGAN CITY+ SUNNY     70  70 100 CALM      30.11R
MONTICELLO +   SUNNY     73  71  93 CALM      30.10S
RENSSELAER +   SUNNY     70  64  83 CALM      30.10S
VALPARAISO     SUNNY     73  70  90 CALM      30.11S FOG

$$

LMZ046-743>745-221400-
SOUTHERN LAKE MICHIGAN

STATION/POSITION TIME  TEMP    WIND        PRES    WAVE
                       AIR SEA DIR/SP/G            HT
                 (UTC) (F)     (DEG/KT/KT) (MB)    (FT)
BURNS HARBOR     1240   75     180/  7/  9 1019.3R
MICHIGAN CITY    1240   75     170/  4/  5   N/A
5NW MICH CITY    1300   72 70  180/  2/  4   N/A     0

$$

INZ004-005-014>016-021>024-221400-
NORTH CENTRAL INDIANA

CITY           SKY/WX    TMP DP  RH WIND       PRES   REMARKS
ELKHART        SUNNY     72  68  88 CALM      30.11S FOG
GOSHEN         SUNNY     72  68  87 CALM      30.11S FOG
LOGANSPORT +   SUNNY     68  68 100 CALM      30.12S FOG
PERU/GRISSOM   MOSUNNY   74  72  92 CALM      30.11S
SOUTH BEND     SUNNY     73  70  90 CALM      30.11R
WARSAW +       SUNNY     70  70 100 CALM      30.12S FOG

$$

INZ006>009-017-018-025>027-221400-
NORTHEAST INDIANA

CITY           SKY/WX    TMP DP  RH WIND       PRES   REMARKS
AUBURN +         N/A     72  70  94 CALM      30.13S FOG
FORT WAYNE     MOSUNNY   72  68  87 CALM      30.13R
HUNTINGTON +   SUNNY     71  69  95 CALM      30.12S FOG
KENDALLVILLE +   N/A     70  70 100 CALM      30.13S FOG

$$

INZ028-029-035-036-043>045-051>053-221400-
WEST CENTRAL INDIANA

CITY           SKY/WX    TMP DP  RH WIND       PRES   REMARKS
CRAWFORDSVL +  SUNNY     70  70 100 CALM      30.11S
GREENCASTLE +  SUNNY     70  68  94 CALM      30.12S
LAFAYETTE      SUNNY     70  70 100 CALM      30.09F FOG
TERRE HAUTE    SUNNY     73  69  87 CALM      30.09F

$$

INZ030>032-037>040-046>048-054>057-064-065-221400-
CENTRAL INDIANA

CITY           SKY/WX    TMP DP  RH WIND       PRES   REMARKS
ANDERSON       SUNNY     70  70 100 CALM      30.13
CP ATTERBURY + SUNNY     68  68 100 CALM      30.12F FOG
COLUMBUS       SUNNY     70  68  94 CALM      30.12S FOG
FISHERS *+     SUNNY     70  70 100 SE3       30.12
FRANKFORT +    CLOUDY    73  70  91 CALM      30.13S FOG
GREENWOOD *+   SUNNY     76  73  91 CALM      30.13S
INDIANAPOLIS   MOSUNNY   74  69  85 SE6       30.12R
-EAGLE CREEK   SUNNY     74  70  87 CALM      30.11S
KOKOMO +       SUNNY     71  69  93 CALM      30.13R
MT COMFORT *+  SUNNY     70  68  94 S3        30.12S
SHELBYVILLE    MOSUNNY   73  68  84 CALM      30.12R
ZIONSVILLE +   SUNNY     69  69 100 CALM      30.13S FOG

$$

INZ033-034-041-042-049-050-058-059-221400-
EAST CENTRAL INDIANA

CITY           SKY/WX    TMP DP  RH WIND       PRES   REMARKS
MUNCIE         SUNNY     76  69  79 CALM      30.13R
RICHMOND +     RAIN      70  70 100 CALM      30.15S

$$

INZ060-061-067>069-081>083-085>088-221400-
SOUTHWEST INDIANA

CITY           SKY/WX    TMP DP  RH WIND       PRES   REMARKS
EVANSVILLE     SUNNY     73  70  90 CALM      30.09R
HUNTINGBURG +  SUNNY     70  69  97 CALM      30.10R FOG
WASHINGTON +   SUNNY     70  68  94 CALM      30.09S

$$

INZ062-063-066-070>080-084-089>092-221400-
SOUTH CENTRAL AND SOUTHEAST INDIANA

CITY           SKY/WX    TMP DP  RH WIND       PRES   REMARKS
BEDFORD +      SUNNY     70  66  88 CALM      30.11R FOG
BLOOMINGTON    SUNNY     72  67  84 CALM      30.11S
MADISON *+     MOSUNNY   72  70  94 CALM      30.13F
NORTH VERNON + SUNNY     68  66  94 CALM      30.13R FOG
SEYMOUR +      PTSUNNY   73  68  83 CALM      30.11R

$$





USA.gov is the U.S. government's official web portal to all federal, state and local government web resources and services.